Location: St. Louis
(38.6270°N, 90.1994°W)
Time: 13:14:44
(UTC-06:00)

Transit 2A - Pass Details

Date: 07 December 2021
Orbit: 591 x 967 km, 66.7° (Epoch: 17 January)

Event Time Altitude Azimuth Distance (km) Brightness Sun altitude
Rises 06:21:58 0° 342° (NNW) 3,659 9.1 -8.5°
Reaches altitude 10° 06:25:43 10° 4° (N) 2,711 8.6 -7.8°
Maximum altitude 06:29:31 16° 40° (NE) 2,273 8.7 -7.1°
Drops below altitude 10° 06:33:14 10° 77° (ENE) 2,651 9.7 -6.5°
Sets 06:36:49 0° 98° (E) 3,540 11.3 -5.8°
